Tracking 23762 objects as of 22-Oct-2021
HD Live streaming from Space Station
objects crossing your sky now

CZ-3C DEB

Track CZ-3C DEB now!


NORAD ID: 39349
Int'l Code: 2010-057P
Perigee: 562.6 km
Apogee: 35,349.0 km
Inclination: 20.3 °
Period: 629.3 minutes
Semi major axis: 24326 km
RCS: 0.3306 m2 (medium)
Launch date: October 31, 2010
Source: People's Republic of China (PRC)
Launch site: Xichang Space Center, China (XSC)

Note: This is SATELLITE DEBRIS
aabbcc
Your satellite tracking list
Your tracking list is empty




NASA's NSSDC Master Catalog

Two Line Element Set (TLE):
1 39349U 10057P   21294.62653214 -.00000051  00000-0  12735-2 0  9995
2 39349  20.3348 254.5866 7149822 305.4311 298.5237  2.28810447 58731
Source of the keplerian elements: AFSPC